Miscellaneous Local Product
Issued by NWS Hastings, NE

Home | Current Version | Previous Version | Text Only | Print | Product List | Glossary Off
Versions: 1 2 3 4 5 6 7 8 9 10 11 12 13 14 15 16 17 18 19 20 21 22 23 24 25 26 27 28 29 30 31 32 33 34 35 36 37 38 39 40 41 42 43 44 45 46 47 48 49 50

000
AXUS43 KGID 230802
MISGRI

GID CWA HOURLY WEATHER ROUNDUP
NATIONAL WEATHER SERVICE HASTINGS NE
300 AM CDT WED AUG 23 2017

NOTE: "FAIR" INDICATES FEW OR NO CLOUDS BELOW 12,000 FEET WITH NO
SIGNIFICANT WEATHER AND/OR OBSTRUCTIONS TO VISIBILITY.

...SOUTH CENTRAL NEBRASKA...

CITY           SKY/WX    TMP DP  RH WIND       PRES   REMARKS
GRAND ISLAND   CLEAR     57  55  93 S7        30.19F
HASTINGS       CLEAR     59  52  77 S5        30.21S
KEARNEY        CLEAR     56  52  86 S8        30.20F
ORD            CLEAR     56  52  86 CALM      30.17S
YORK           CLEAR     54  54 100 SW6       30.20R
AURORA         CLEAR     56  54  91 S5        30.19F
LEXINGTON      CLEAR     58  53  82 S7        30.19S
HOLDREGE       CLEAR     57  51  81 S5        30.20F
HEBRON         CLEAR     54  52  94 CALM      30.20S

...NEBRASKA PANHANDLE...

CITY           SKY/WX    TMP DP  RH WIND       PRES   REMARKS
CHADRON        CLEAR     68  51  54 SW14G25   30.07S
ALLIANCE       CLEAR     59  51  75 S14       30.15S
SCOTTSBLUFF    CLEAR     59  53  80 E10       30.14F
SIDNEY         CLEAR     62  54  74 S13       30.19F

...WESTERN AND NORTH CENTRAL NEBRASKA...

CITY           SKY/WX    TMP DP  RH WIND       PRES   REMARKS
VALENTINE      CLEAR     60  50  69 CALM      30.13F
AINSWORTH      CLEAR     58  54  85 S7        30.15S
ONEILL         CLEAR     57  54  87 SE6       30.17S
BROKEN BOW     CLEAR     57  52  83 CALM      30.17F
IMPERIAL       CLEAR     59  49  69 S9        30.20F
NORTH PLATTE   CLEAR     58  52  80 SE5       30.19S
MCCOOK         MOCLDY    61  52  72 S9        30.20S

...EASTERN NEBRASKA...

CITY           SKY/WX    TMP DP  RH WIND       PRES   REMARKS
NORFOLK        CLEAR     53  52  96 CALM      30.17R
SO SIOUX CITY  CLEAR     53  53 100 CALM      30.16S
TEKAMAH        CLEAR     54  51  90 SW3       30.16S
COLUMBUS       CLEAR     53  52  96 CALM      30.19R
ALBION         CLEAR     55  54  97 CALM      30.18S
OMAHA EPPLEY   CLEAR     58  53  84 CALM      30.17S
OFFUTT AFB     CLEAR     53  53  97 CALM      30.16S
MILLARD        CLEAR     57  56  96 CALM      30.17S
LINCOLN        CLEAR     56  53  90 CALM      30.19S
NEBRASKA CITY  CLEAR     59  54  82 CALM      30.17S
BEATRICE       CLEAR     55  54  95 CALM      30.19R
FALLS CITY     CLEAR     56  53  90 CALM      30.17S

...NORTHERN KANSAS...

CITY           SKY/WX    TMP DP  RH WIND       PRES   REMARKS
GOODLAND       CLEAR     57  48  72 S12       30.21F
HILL CITY      CLEAR     56  51  84 E6        30.21S
NORTON         SUNNY     59  46  63 SE8       30.19F
PHILLIPSBURG   CLEAR     54  54 100 CALM      30.20F
SMITH CENTER   PTCLDY    54  50  87 CALM      30.21S
HAYS           CLEAR     58  51  78 E9        30.20F
RUSSELL        CLEAR     59  49  69 E7        30.19S
CONCORDIA      CLEAR     57  53  86 CALM      30.20R
SALINA         CLEAR     62  51  67 W3        30.19R
TOPEKA         CLEAR     57  57 100 CALM      30.17R



USA.gov is the U.S. government's official web portal to all federal, state and local government web resources and services.